Regional Weather Roundup
Issued by NWS Charleston, SC

Current Version | Previous Version | Graphics & Text | Print | Product List | Glossary On
Versions: 1 2 3 4 5 6 7 8 9 10 11 12 13 14 15 16 17 18 19 20 21 22 23 24 25 26 27 28 29 30 31 32 33 34 35 36 37 38 39 40 41 42 43 44 45 46 47 48 49 50
000
ASUS42 KCHS 291312
RWRCHS

REGIONAL WEATHER ROUNDUP
NATIONAL WEATHER SERVICE CHARLESTON SC
900 AM EDT FRI MAY 29 2015

NOTE: "FAIR" INDICATES FEW OR NO CLOUDS BELOW 12,000 FEET WITH NO
SIGNIFICANT WEATHER AND/OR OBSTRUCTIONS TO VISIBILITY.

NOT ALL STATIONS ARE QUALITY CONTROLLED BY THE NATIONAL
WEATHER SERVICE. USE DATA WITH CAUTION...ESPECIALLY
DEWPOINT OBSERVATIONS.

SCZ027-030-031-034>040-042>050-291400-
...SOUTHEAST SOUTH CAROLINA...

CITY           SKY/WX    TMP DP  RH WIND       PRES   REMARKS
N CHARLESTON   MOSUNNY   76  65  68 NE10      30.21R
WATERFRONT PAR   N/A     75  69  81 NE7       30.18R
MOUNT PLEASANT FAIR      75  66  73 N3        30.21S
JOHNS ISLAND   SUNNY     77  68  73 NE6       30.21R
PINOPOLIS      NOT AVBL
MONCKS CORNER  FAIR      75  64  69 E7        30.22R
SUMMERVILLE    FAIR      73  66  78 N3        30.23R
BEAUFORT MCAS  MOSUNNY   77  65  66 NE7       30.20R
BEAUFORT ARPT  FAIR      77  68  73 NE6       30.20R
HILTON HEAD IS MOSUNNY   77  64  65 NE8       30.20R
WALTERBORO     SUNNY     72  63  73 NE9       30.22R
ALLENDALE      FAIR      72  64  78 CALM      30.21R

...SOUTHERN MIDLANDS AND PEE DEE...

CITY           SKY/WX    TMP DP  RH WIND       PRES   REMARKS
GEORGETOWN     NOT AVBL
KINGSTREE      NOT AVBL
ORANGEBURG     SUNNY     74  64  71 NE5       30.23R
BARNWELL       FAIR      73  66  78 NE3       30.23R
AIKEN          FAIR      72  59  64 SE6       30.27R
MANNING        FAIR      72  52  49 NE3       30.23S
COLUMBIA       MOSUNNY   74  63  68 E5        30.23R
SUMTER         SUNNY     73  64  71 NE3       30.22R
FLORENCE       SUNNY     76  65  68 CALM      30.24R
MYRTLE BEACH   SUNNY     77  64  65 NE8       30.25R
N MYRTLE BEACH SUNNY     76  65  68 E7        30.23R

$$

GAZ063-065-086>088-099>101-113>116-118-119-134>141-150-291400-
...SOUTHEAST GEORGIA...

CITY           SKY/WX    TMP DP  RH WIND       PRES   REMARKS
SAVANNAH ARPT  MOSUNNY   76  63  64 NE7       30.19R
HUNTER AAF     SUNNY     78  66  64 NE8       30.17R
FORT STEWART   SUNNY     77  65  67 NE7       30.17R
STATESBORO     SUNNY     74  71  92 E5        30.21R
SYLVANIA       SUNNY     75  67  77 E5        30.22R
CLAXTON        FAIR      73  68  83 E3        30.20R

...CSRA...CENTRAL AND FAR SOUTHEAST GEORGIA...

CITY           SKY/WX    TMP DP  RH WIND       PRES   REMARKS
THOMSON        MOSUNNY   73  68  84 CALM      30.28R
AUGUSTA-BUSH   SUNNY     73  64  73 VRB5      30.22R
AUGUSTA-DANIEL SUNNY     73  62  68 SE5       30.24R
SWAINSBORO     FAIR      73  70  88 CALM      30.22R
VIDALIA        SUNNY     72  66  83 E5        30.21R
EASTMAN        FAIR      74  70  89 E3        30.23R
HAZLEHURST     FAIR      73  67  80 NE3       30.19R
ALMA           SUNNY     73  66  78 E3        30.18R
WAYCROSS       SUNNY     73  68  83 NE3       30.18R
JESUP          FAIR      79  70  73 NE3       30.18R
BAXLEY         FAIR      73  68  83 CALM      30.18R
BRUNSWICK        N/A     77  63  61 NE8       30.17S
SAINT SIMONS   NOT AVBL

$$

SCZ027-028-034-036>038-045-046-048>050-GAZ119-141-291400-
...LAKE AND SUPPLEMENTAL COASTAL OBSERVATIONS...

STATION/POSITION TIME  TEMP    WIND        PRES    WAVE   SWELL
                       AIR SEA DIR/SP/G            HT/PER HT/PER/DIR
                 (UTC) (F)     (DEG/KT/KT) (MB)    (FT/S) (FT/S/D)
UPR LAKE MARION  NOT AVBL
WINYAH BAY       1145   73      10/  3     1021.0
LAKE MURRAY      1200   71     120/  3/  5 1023.0R
ACE BASIN NERRS  NOT AVBL
FORT PULASKI     1200   76 79   70/  9/ 10 1022.2R
SAPELO ISLAND    1200   80     100/  4     1021.0S

$$

ANZ835-935-AMZ111-154-330-350-352-354-370-450-454-472-291400-
...C-MAN AND BUOY OBSERVATIONS...

STATION/POSITION TIME  TEMP    WIND        PRES    WAVE   SWELL
                       AIR SEA DIR/SP/G            HT/PER HT/PER/DIR
                 (UTC) (F)     (DEG/KT/KT) (MB)    (FT/S) (FT/S/D)
BUOY 41004       1250   75 78   40/ 14/ 17 1021.9R   4/10   3/10
BUOY 41008       1250   77 78   70/ 10/ 12 1021.8R   3/ 8   3/110/ 8
FOLLY BEACH CMAN 1300   76      20/  8/ 10 1023.0R
CAPERS NEARSHORE 1208   76      60/  8/ 12 1022.4R
FRIPP NEARSHORE  1200   77      90/  8/ 10 1021.6R


STATION/POSITION TIME  TEMP    WIND        PRES    WAVE   SWELL
                       AIR SEA DIR/SP/G            HT/PER HT/PER/DIR
                 (UTC) (F)     (DEG/KT/KT) (MB)    (FT/S) (FT/S/D)
5E ST. MARYS GA  1221      79                N/A     3/ 9
FRYING PAN BUOY  1250   76 75   40/ 16/ 17 1023.5R   4/10   3/110/10
BUOY 41025       1250   76 76   80/  8/  8 1024.1R   3/ 9   3/110/ 9
CAPE LOOKOUT NC  1300   74      40/ 11/ 12 1023.7R
BUOY 41002       1250   75 74   80/ 16/ 17 1021.8R   5/ 8   3/ 90/ 8
BUOY 41010       1220   78 81   70/ 12/ 17 1019.2R
ST AUGUSTINE FL  1300   77 78   90/ 10/ 11 1021.3R


$$



USA.gov is the U.S. government's official web portal to all federal, state and local government web resources and services.